THORAD DELTA 1 DEB, 9699

Orbit data source: Space-Track

THORAD DELTA 1 DEB, 9699 is space debris in SSO originally from a launch on Fri, 15 Nov 1974 UTC launched from the Air Force Western Test Range (AFWTR). Debris objects in space refer to the collection of defunct objects orbiting the Earth. Examples of debris include non-operational satellites, rocket bodies, and fragments generated from explosions, collisions, or faulty payload assembly.

Loading next visibility...
Identifier
9699, 1974-089DY
Orbit
SSO
Country
Flag of USUS
Related business
Manufacturer
Unknown
Mission
Spacecraft
Bus & Motor
Unknown
Mass
Unknown
Launch date (UTC)
1974-11-15 (52 years ago)
Launch vehicle
Unknown
Launch site
Air Force Western Test Range (AFWTR)
Object type
Payload
Rocket body
Debris
Shape & HBR
Unknown shape, 0.1 m
Radar Cross Section
Medium (>0.1 m² and <1 m²)

Expand to show TLE details & history
Last TLE update: 2 weeks ago

TLE from 2 weeks ago
0 THORAD DELTA 1 DEB
1 09699U 74089DY  26152.27998365 -.00000022  00000-0  16338-3 0  9995
2 09699 101.6372 265.7456 0123120 345.2435  41.4268 12.29326229315524
Epoch: 2026-06-01T06:43Z
TLE epoch observation values (Epoch: 2026-06-01T06:43:10.587Z)
Latitude
27.03763°
Longitude
-90.82162°
Altitude
1,482.48 km
Speed
7.157 km/s
True Right ascension
17h 18m 58s
True Declination
26° 54' 41"
Sunlit
Object was in full shadow at epoch
Visualization orbit readout
Latitude
Unknown
Longitude
Unknown
Altitude
Unknown
Speed
Unknown
Apparent Right ascension
Unknown
Apparent Declination
Unknown
Sunlit
N/A
Visualization observer readout
Local Sidereal Time
21:32:19
Azimuth
Unknown
Elevation
Unknown
Doppler factor
Unknown
Orbital elements
Apogee altitude
1,647.353 km
Perigee altitude
1,452.136 km
Semi-major axis
7,927.882 km
Eccentricity
0.01231
Inclination
101.6372°
RAAN
265.7456°
Arg. of periapsis
345.2435°
True anomaly
42.37116°
Mean anomaly
41.4268°
Eccentric anomaly
41.89789°
Mean motion
3.07473 °/min
Orbital period
117.08 mins
BSTAR
0.00016338
Loading maneuver chart data...
Computing Atmospheric mass density...
Loading historical data...
Loading historical data...
Loading historical data...
Loading historical data...
Loading historical data...
Loading historical data...
Loading historical data...

Documentation

Showing up to 5 results
|